sat.trackr.live / text

‹ back to catalog

STARLINK-2492

NORAD 48149 · 2021-027BK

PAYLOAD ACTIVE UNKNOWN

§ Identity

Operator
Country
US
Launch date
2021-04-07
Launch site
AFETR
Launch vehicle
Mass (kg)
RCS (m²)

Purposes: comms

External: N2YO · Heavens-Above · Gunter

§ Orbital elements

Epoch: 2026-09-19T04:32:18.416256Z

Period
94.01 min
Inclination
53.1608°
Eccentricity
0.0001457
Mean motion
15.31696370 rev/d
Perigee alt
469.8 km
Apogee alt
471.7 km
Semi-major
6,848.9 km
B*
5.6180e-5
RAAN
332.4392°
Arg perigee
80.4579°
Mean anomaly
279.6588°
Rev number
30,232

§ Raw data

STARLINK-24921 48149U 21027BK  26262.18910204  .00001378  00000+0  56180-4 0  99932 48149  53.1608 332.4392 0001457  80.4579 279.6588 15.31696370302323

JSON: /api/v1/satellites/48149 · /tle

For live sub-satellite position, see the globe view (requires WebGL).

§ Visibility from observer

Set your observer location to see the next 7 days of passes ≥ 10°. The values pass through the URL so the page stays shareable.

No JS? Fill the form by hand. The geolocation button needs JavaScript.